Погода в Жлобине

Погода в Жлобине : погода сейчас, прогноз погоды и архив. Всё, что Вы хотите узнать о погоде в Жлобине!

Хотите узнать прогноз погоды в Жлобине? Тогда Вам сюда: Погода в Жлобине

Поиск расширенной информации на нашем сайте:

Другие новости

Новости СМИ2

Главная страница сайта

Новости сайта

03.07.2017

Напоминаем, что на нашем специализированном сайте Метеоцентр.Азия вы можете получить высокодетализированные автоматические прогнозы погоды по пунктам России, СНГ и мира в авиационном формате (включающие направление и скорость ветра, видимость, явления погоды, количество и форму облачности, нижнюю и верхнюю границу облачности).


Погода в Жлобине - сегодня

Время (UTC), дата Ветер
(°,м/с) 
Видим.   Явления Облачность Т
(°С)
Тd
(°С)
f(%) Тe
(°С)
Pmin
(гПа)
dP
(гПа)
Po
(мм)
O2
(г/м3)
Тmin Tmax R s Состояние
почвы
12 22.02.18 тихо ()   15000 м  {ливн. осадки}  6/3 1000 м средняя 
[Sc|Ac trans]
-4.7 -8.7 74 -5  1026.4  0.3  756  311           
15 22.02.18 060 (СВ) 10 км  слаб. ливневой снег  10/6 600 м кучево-дожд. 
[Cb cap]
-5.3 -8.6 78 -5  1026.6  0.1  756  312      0.0     
21 22.02.18 060 (СВ) 2000 м  слаб. ливневой снег  10/8 100 м 
[Frnb]
-8.7 -10.6 86 -8  1027.5  0.3  757  316           
00 23.02.18 070 (В) 10 км  слаб. ливневой снег  10/5 600 м кучево-дожд., средняя 
[Cb cap|Ac As]
-11.2 -12.5 90 -11  1027.8  757  319           
06 23.02.18 тихо ()   12000 м  в посл. час ливневой снег  9/6 600 м кучево-дожд., средняя 
[Cb cap|Ac As]
-12.8 -14.8 85 -13  1027  -0.1  756  321  -12.8    20  равномерный
сухой снег
100% 
09 23.02.18 020 (С) 12000 м  слаб. ливневой снег  10/6 600 м кучево-дожд., средняя 
[Cb cap|Ac As]
-10.2 -12.2 85 -10  1026.7  -0.2  756  318           
12 23.02.18 070 (В) 8000 м  слаб. ливневой снег  9/6 600 м кучево-дожд., средняя 
[Cb cap|Ac trans]
-7.6 -10.6 79 -7  1025.6  -0.8  755  314           
15 23.02.18 050 (СВ) 1800 м  ливневой снег  10/8 300 м кучево-дожд., средняя 
[Cb cap|Ac As]
-7.5 -9.7 84 -7  1024.5  -1.1  755  314      0.5     
18 23.02.18 060 (СВ) 3200 м  слаб. ливневой снег  10/8 300 м кучево-дожд., средняя 
[Cb cap|Ac As]
-8.7 -10.2 89 -8  1023.9  -0.6  754  315    -7.2  21   
21 23.02.18 070 (В) 2800 м  слаб. снег{ливн. осадки}  10/8 300 м средняя 
[Frnb|As op]
-8.5 -9.6 92 -8  1023.2  -0.7  754  314           
00 24.02.18 110 (В) 3500 м  слаб. снег{ливн. осадки}  10/9 200 м средняя 
[Frnb|As op]
-8.3 -9.3 92 -8  1022.6  -0.7  753  314           
06 24.02.18 090 (В) 3500 м  слаб. снег  10/0 средняя, верхняя 
[As op|Ci fib]
-10.4 -12.4 85 -12  1023.1  0.7  753  317  -10.5    23  равномерный
сухой снег
100% 
09 24.02.18 070 (В) 4100 м  слаб. снег  10/0 средняя 
[As op]
-10.3 -13.1 80 -13  1023.8  0.7  754  317           
12 24.02.18 080 (В) 6000 м  слаб. снег  10/0 средняя, верхняя 
[As op|Ci sp]
-9 -12.4 76 -12  1024  0.3  754  315           
15 24.02.18 060 (СВ) 4800 м  слаб. снег  9/0 средняя 
[As op]
-9.4 -12.4 79 -12  1024.8  0.8  755  316         
21 24.02.18 060 (СВ) 20000 м  в посл. час снег  8/0 средняя, верхняя 
[As op|Cs]
-13 -16.5 75 -13  1027.1  0.7  756  321           
00 25.02.18 тихо ()   23000 м  {снег}  4/0 средняя, верхняя 
[Ac trans|Ci fib]
-16.1 -19.5 75 -16  1027.8  0.4  756  325           
03 25.02.18 360 (С) 27000 м    8/3 1000 м средняя 
[Sc|Ac trans]
-16 -19.4 75 -16  1027.6  -0.2  756  325      0.0  24   
06 25.02.18 360 (С) 25000 м  слаб. ливневой снег  9/4 600 м кучево-дожд., средняя 
[Cb cap|Ac trans]
-15.2 -17.9 80 -15  1028.2  0.7  757  324  -16.4    0.0  24  равномерный
сухой снег
100% 
09 25.02.18 330 (СЗ) 20000 м  в посл. час ливневой снег  4/3 1000 м средняя 
[Sc|Ac trans]
-11.6 -15.1 75 -11  1027.9  -0.1  757  320           
12 25.02.18 320 (СЗ) 19000 м  {ливн. осадки}  8/4 600 м кучево-дожд. 
[Cb cap]
-10.2 -13.8 75 -10  1027.2  -0.6  756  318           
15 25.02.18 300 (СЗ) 21000 м    9/9 1000 м 
[Sc]
-11.3 -14.8 75 -11  1027.2  -0.1  756  319      0.0     
18 25.02.18 тихо ()   20000 м  в посл. час ливневой снег  9/8 600 м кучево-дожд. 
[Cb cap]
-12 -15.5 75 -12  1027.8  0.6  757  320    -9.2  0.0  22   
21 25.02.18 330 (СЗ) 20000 м  в посл. час ливневой снег  9/6 600 м кучево-дожд., средняя 
[Cb cap|Ac trans]
-12.6 -16.1 75 -13  1027.7  -0.1  757  321           
00 26.02.18 330 (СЗ) 20000 м  {ливн. осадки}  9/6 1000 м средняя 
[Sc|Ac trans]
-13.8 -16.5 80 -14  1027.7  -0.1  757  322           
Время (UTC), дата Ветер
(°,м/с) 
Видим.   Явления Облачность Т
(°С)
Тd
(°С)
f(%) Тe
(°С)
Pmin
(гПа)
dP
(гПа)
Po
(мм)
O2
(г/м3)
Тmin Tmax R s Состояние
почвы

Для получения пояснительной информации подведите курсор к названию столбца.

ПОГОДА в Жлобине - архив

Всё, что Вы хотите узнать о погоде в Жлобине - удобно и подробно!

Выберите нужную дату (начиная с 1 января 2015* года) и нажмите кнопку "Найти".
Будут отображены архивные сводки погоды по пункту Жлобин, начиная с указанной даты.


Отображать данные в формате CSV (для использования в таблицах Excel)


Внимание! Наш архив погоды предназначен исключительно для личного некоммерческого использования в познавательных целях. Если Вам необходимы официальные справки о состоянии погоды (для производственных, юридических, коммерческих и т.п. целей), обращайтесь в органы Росгидромета.

*Примечание: данная дата относится к архиву по метеостанциям СССР (Россия, СНГ, Балтия).
Архив по метеостанциям Зарубежной Европы и Азии (кроме Китая) хранится 10 дней, по другим регионам земного шара (Китай, Африка, Америка, Австралия, Океания) - 1 день.

Жлобин - район местоположения метеостанции


Название, широта, долгота, высота метеостанции:
Жлобин 52.9°ш. 30°д. 142 м над ур. моря [Беларусь]

Дополнительная информация

В oтличие oт бoльшинства пoгoдных сайтoв мы публикуем пoдрoбную метеoинфoрмацию в детальнoм прoфессиoнальнoм фoрмате.

Характеристики температуры и влажнoсти вoздуха измеряются на высoте 2 м в тени вдали oт зданий и деревьев.
Скoрoсть ветра измеряется на высoте 10 м (на урoвне рoста челoвека скoрoсть ветра ниже в 1.5-2 раза). Если метеoстанция нахoдится в гoрoде или в лесу, тo скoрoсть ветра занижена на 2-4 м/с пo сравнению с oткрытым местoм. Скoрoсть ветра над акватoриями крупных рек и oзёр, а также на вершинах хoлмoв на 2-5 м/с выше, чем в oбычных услoвиях.
Атмoсфернoе давление в разных тoчках местнoсти мoжет значительнo oтличаться oт давления на метеoстанции, в зависимoсти oт услoвий рельефа (при пoдъёме на 10 м давление пoнижается примернo на 1 мм рт.ст.).